GW6556 Weather Reports


Display with metric or nautical units.
time (UTC)temp
F
wind
direction
speed
MPH
gust
MPH
rain 1hr
in
rain 24hr
in
rain mn
in
humidity
%
barometer
mb
20260906102852 66 315 0.0 2.0 0.00 0.00 0.00 99 1015.1
20260906102351 66 316 1.0 2.0 0.00 0.00 0.00 99 1015.2
20260906101846 66 294 1.0 1.0 0.00 0.00 0.00 99 1015.1
20260906101341 66 313 2.0 2.0 0.00 0.00 0.00 99 1015.1
20260906100837 66 312 2.0 2.0 0.00 0.00 0.00 99 1015.1
20260906100335 66 325 0.0 2.0 0.00 0.00 0.00 99 1015.3
20260906095831 66 294 0.0 2.0 0.00 0.00 0.00 99 1015.3
20260906095326 66 162 1.0 2.0 0.00 0.00 0.00 99 1015.3
20260906094826 66 139 2.0 2.0 0.00 0.00 0.00 99 1015.3
20260906094321 66 263 2.0 4.0 0.00 0.00 0.00 99 1015.3
20260906093817 66 289 2.0 2.0 0.00 0.00 0.00 99 1015.0
20260906093313 66 316 2.0 2.0 0.00 0.00 0.00 99 1015.0
20260906092808 65 37 0.0 1.0 0.00 0.00 0.00 99 1015.0
20260906092307 66 299 2.0 2.0 0.00 0.00 0.00 99 1015.0
20260906091803 65 294 0.0 2.0 0.00 0.00 0.00 99 1015.0
20260906091259 65 306 1.0 2.0 0.00 0.00 0.00 99 1014.8
20260906090755 66 310 1.0 2.0 0.00 0.00 0.00 99 1014.9
20260906090254 65 315 0.0 0.0 0.00 0.00 0.00 99 1014.9
20260906085754 65 322 1.0 2.0 0.00 0.00 0.00 99 1014.6
20260906085253 65 310 1.0 2.0 0.00 0.00 0.00 99 1014.8
20260906084748 66 325 1.0 1.0 0.00 0.00 0.00 99 1014.7
20260906084248 65 311 1.0 2.0 0.00 0.00 0.00 99 1014.9
20260906083743 65 325 1.0 2.0 0.00 0.00 0.00 99 1014.9
20260906083238 66 305 1.0 2.0 0.00 0.00 0.00 99 1014.7
20260906082733 66 308 1.0 1.0 0.00 0.00 0.00 99 1014.8
20260906082228 66 303 2.0 2.0 0.00 0.00 0.00 99 1014.9
20260906081724 66 317 1.0 2.0 0.00 0.00 0.00 99 1014.9
20260906081219 66 310 2.0 2.0 0.00 0.00 0.00 99 1014.7
20260906080716 66 304 0.0 1.0 0.00 0.00 0.00 99 1014.9
20260906080212 66 314 1.0 2.0 0.00 0.00 0.00 99 1014.7
20260906075712 66 315 1.0 2.0 0.00 0.00 0.00 99 1014.7
20260906075206 66 302 1.0 2.0 0.00 0.00 0.00 99 1014.4
20260906074701 66 309 0.0 2.0 0.00 0.00 0.00 99 1014.6
20260906074200 66 317 1.0 2.0 0.00 0.00 0.00 99 1014.7
20260906073655 66 307 1.0 2.0 0.00 0.00 0.00 99 1014.6
20260906073151 66 305 1.0 2.0 0.00 0.00 0.00 99 1014.7
20260906072646 66 306 2.0 2.0 0.00 0.00 0.00 99 1014.6
20260906072141 67 301 1.0 2.0 0.00 0.00 0.00 99 1014.5
20260906071638 67 322 0.0 0.0 0.00 0.00 0.00 99 1014.8
20260906071138 67 320 1.0 2.0 0.00 0.00 0.00 99 1014.9
20260906070635 67 282 1.0 2.0 0.00 0.00 0.00 99 1014.8
20260906070130 67 311 1.0 2.0 0.00 0.00 0.00 99 1014.8
20260906065630 67 297 1.0 2.0 0.00 0.00 0.00 99 1015.0
20260906065125 67 315 1.0 2.0 0.00 0.00 0.00 99 1014.8
20260906064620 67 317 0.0 2.0 0.00 0.00 0.00 99 1015.0
20260906064115 67 304 2.0 2.0 0.00 0.00 0.00 99 1014.9
20260906063616 67 314 2.0 2.0 0.00 0.00 0.00 99 1015.0
20260906063112 67 311 1.0 2.0 0.00 0.00 0.00 99 1015.1
20260906062607 67 299 1.0 2.0 0.00 0.00 0.00 99 1014.8
20260906062106 67 324 1.0 2.0 0.00 0.00 0.00 99 1014.8
20260906061602 67 309 1.0 2.0 0.00 0.00 0.00 99 1015.1
20260906061102 67 309 1.0 2.0 0.00 0.00 0.00 99 1015.1
20260906060558 68 311 1.0 2.0 0.00 0.00 0.00 99 1015.2
20260906060055 68 315 0.0 0.0 0.00 0.00 0.00 99 1015.4
20260906055551 67 308 1.0 2.0 0.00 0.00 0.00 99 1015.5
20260906055046 68 310 1.0 2.0 0.00 0.00 0.00 99 1015.3
20260906054541 67 319 0.0 2.0 0.00 0.00 0.00 99 1015.3
20260906054036 68 346 0.0 1.0 0.00 0.00 0.00 99 1015.6
20260906053532 68 306 2.0 2.0 0.00 0.00 0.00 99 1015.5
20260906053028 68 312 1.0 2.0 0.00 0.00 0.00 99 1015.5
20260906052523 68 6 0.0 1.0 0.00 0.00 0.00 99 1015.5
20260906052020 68 307 2.0 2.0 0.00 0.00 0.00 99 1015.6
20260906051516 68 301 2.0 2.0 0.00 0.00 0.00 99 1015.5
20260906051011 68 69 0.0 0.0 0.00 0.00 0.00 99 1015.5
20260906050506 68 325 0.0 2.0 0.00 0.00 0.00 99 1015.5
20260906050006 68 316 1.0 2.0 0.00 0.00 0.00 99 1015.8
20260906045504 69 357 0.0 0.0 0.00 0.00 0.00 99 1015.6
20260906045000 69 299 2.0 2.0 0.00 0.00 0.00 99 1016.0
20260906044455 69 292 2.0 2.0 0.00 0.00 0.00 99 1015.8
20260906043951 69 315 0.0 0.0 0.00 0.00 0.00 99 1015.9
20260906043447 69 7 0.0 1.0 0.00 0.00 0.00 99 1015.9
20260906042942 69 316 0.0 1.0 0.00 0.00 0.00 99 1015.8
20260906042441 69 32 0.0 1.0 0.00 0.00 0.00 99 1015.8
20260906041936 69 323 1.0 2.0 0.00 0.00 0.00 99 1016.0
20260906041432 69 307 2.0 2.0 0.00 0.00 0.00 99 1015.7
20260906040932 69 30 1.0 1.0 0.00 0.00 0.00 99 1015.9
20260906040427 69 299 0.0 2.0 0.00 0.00 0.00 99 1016.0
20260906035922 69 303 2.0 2.0 0.00 0.00 0.00 98 1015.9
20260906035418 69 305 2.0 2.0 0.00 0.00 0.00 98 1015.5
20260906034913 69 314 1.0 2.0 0.00 0.00 0.00 98 1015.6
20260906034413 69 313 2.0 2.0 0.00 0.00 0.00 98 1015.5
20260906033908 69 306 1.0 2.0 0.00 0.00 0.00 98 1015.7
20260906033408 69 312 2.0 2.0 0.00 0.00 0.00 98 1015.9
20260906032904 69 318 1.0 2.0 0.00 0.00 0.00 98 1015.9
20260906032400 69 301 2.0 2.0 0.00 0.00 0.00 98 1015.9
20260906031855 70 306 2.0 2.0 0.00 0.00 0.00 98 1015.7
20260906031350 70 312 2.0 2.0 0.00 0.00 0.00 98 1015.7
20260906030845 70 293 0.0 0.0 0.00 0.00 0.00 98 1015.7
20260906030340 70 313 1.0 2.0 0.00 0.00 0.00 98 1015.6
20260906025835 70 307 1.0 2.0 0.00 0.00 0.00 98 1015.5
20260906025328 70 310 0.0 1.0 0.00 0.00 0.00 98 1015.8
20260906024827 70 309 0.0 1.0 0.00 0.00 0.00 98 1015.7
20260906024326 70 302 2.0 2.0 0.00 0.00 0.00 98 1015.8
20260906023822 71 301 0.0 2.0 0.00 0.00 0.00 98 1015.7
20260906023318 70 304 0.0 2.0 0.00 0.00 0.00 98 1015.8
20260906022814 70 315 2.0 2.0 0.00 0.00 0.00 98 1015.8
20260906022308 71 299 1.0 2.0 0.00 0.00 0.00 97 1015.8
20260906021804 71 318 2.0 2.0 0.00 0.00 0.00 98 1015.7
20260906021304 71 305 1.0 2.0 0.00 0.00 0.00 98 1015.8
20260906020759 71 306 1.0 1.0 0.00 0.00 0.00 98 1015.8
20260906020258 71 300 0.0 1.0 0.00 0.00 0.00 98 1015.7
20260906015758 71 322 0.0 2.0 0.00 0.00 0.00 97 1015.7
20260906015256 71 284 2.0 2.0 0.00 0.00 0.00 97 1015.6
20260906014751 72 37 0.0 0.0 0.00 0.00 0.00 97 1015.6
20260906014247 72 326 0.0 1.0 0.00 0.00 0.00 97 1015.5
20260906013743 72 308 1.0 2.0 0.00 0.00 0.00 97 1015.4
20260906013243 72 305 1.0 2.0 0.00 0.00 0.00 97 1015.4
20260906012738 72 306 1.0 2.0 0.00 0.00 0.00 97 1015.2
20260906012234 72 308 1.0 2.0 0.00 0.00 0.00 97 1015.2
20260906011729 72 15 0.0 0.0 0.00 0.00 0.00 97 1015.1
20260906011228 73 301 0.0 2.0 0.00 0.00 0.00 97 1014.9
20260906010724 73 318 0.0 2.0 0.00 0.00 0.00 96 1014.9
20260906010220 73 306 2.0 2.0 0.00 0.00 0.00 96 1014.9
20260906005715 73 310 1.0 2.0 0.00 0.00 0.00 96 1014.8
20260906005214 73 315 2.0 2.0 0.00 0.00 0.00 96 1014.8
20260906004713 73 294 1.0 2.0 0.00 0.00 0.00 95 1014.7
20260906004208 73 299 2.0 2.0 0.00 0.00 0.00 95 1014.5
20260906003704 74 30 1.0 1.0 0.00 0.00 0.00 95 1014.4
20260906003159 74 297 0.0 1.0 0.00 0.00 0.00 95 1014.4
20260906002659 74 333 0.0 2.0 0.00 0.00 0.00 94 1014.5
20260906002154 74 50 0.0 0.0 0.00 0.00 0.00 94 1014.5
20260906001649 75 25 0.0 1.0 0.00 0.00 0.00 93 1014.0
20260906001149 75 68 0.0 1.0 0.00 0.00 0.00 94 1014.5
20260906000645 75 334 0.0 1.0 0.00 0.00 0.00 94 1014.2
20260906000140 75 113 0.0 0.0 0.00 0.00 0.00 94 1014.4
20260905235639 76 297 0.0 0.0 0.00 0.00 0.00 94 1014.5
20260905235134 76 284 0.0 0.0 0.00 0.00 0.00 93 1014.6
20260905234630 76 283 0.0 0.0 0.00 0.00 0.00 93 1014.2
20260905234126 76 322 0.0 0.0 0.00 0.00 0.00 92 1014.4
20260905233626 77 315 1.0 2.0 0.00 0.00 0.00 92 1014.5
20260905233120 77 293 0.0 0.0 0.00 0.00 0.00 92 1014.5
20260905232615 77 309 0.0 1.0 0.00 0.00 0.00 92 1014.8
20260905232112 77 313 1.0 2.0 0.00 0.00 0.00 91 1014.6
20260905231611 77 309 1.0 2.0 0.00 0.00 0.00 89 1014.5
20260905231108 78 297 0.0 1.0 0.00 0.00 0.00 89 1014.6
20260905230603 78 301 0.0 1.0 0.00 0.00 0.00 89 1014.6
20260905225600 78 255 0.0 0.0 0.00 0.00 0.00 87 1014.7
20260905225055 79 205 0.0 1.0 0.00 0.00 0.00 87 1014.9
20260905224555 80 44 0.0 0.0 0.00 0.00 0.00 86 1014.8
20260905224055 81 298 0.0 2.0 0.00 0.00 0.00 81 1014.6
20260905223552 82 306 0.0 1.0 0.00 0.00 0.00 83 1014.6
20260905223048 83 281 1.0 2.0 0.00 0.00 0.00 82 1014.7
20260905222548 82 283 2.0 2.0 0.00 0.00 0.00 79 1014.7
20260905222043 81 275 1.0 3.0 0.00 0.00 0.00 84 1014.6
20260905221540 80 117 0.0 0.0 0.00 0.00 0.00 88 1014.6
20260905221036 79 309 0.0 2.0 0.00 0.00 0.00 91 1014.9
20260905220531 79 318 0.0 2.0 0.00 0.00 0.00 92 1014.8
20260905220027 78 312 2.0 2.0 0.00 0.00 0.00 91 1014.7
20260905215526 78 307 1.0 2.0 0.00 0.00 0.00 92 1014.4
20260905215023 78 62 0.0 1.0 0.00 0.00 0.00 91 1014.2
20260905214518 79 75 0.0 1.0 0.00 0.00 0.00 90 1014.2
20260905214013 79 117 1.0 2.0 0.00 0.00 0.00 91 1014.2
20260905213509 79 75 1.0 1.0 0.00 0.00 0.00 91 1014.2
20260905213004 79 141 0.0 0.0 0.00 0.00 0.00 90 1014.7
20260905212459 79 322 0.0 1.0 0.00 0.00 0.00 90 1014.6
20260905211958 79 329 0.0 1.0 0.00 0.00 0.00 89 1014.6
20260905211453 79 322 0.0 0.0 0.00 0.00 0.00 88 1014.4
20260905210949 80 322 0.0 0.0 0.00 0.00 0.00 88 1014.6
20260905210444 80 62 0.0 1.0 0.00 0.00 0.00 87 1014.8
20260905205944 80 284 0.0 0.0 0.00 0.00 0.00 87 1015.0
20260905205439 81 293 1.0 2.0 0.00 0.00 0.00 85 1015.0
20260905204937 81 101 1.0 2.0 0.00 0.00 0.00 85 1015.1
20260905204433 82 307 0.0 1.0 0.00 0.00 0.00 85 1015.0
20260905203932 82 297 0.0 1.0 0.00 0.00 0.00 83 1014.8
20260905203428 83 284 0.0 2.0 0.00 0.00 0.00 82 1014.5
20260905202923 83 267 2.0 2.0 0.00 0.00 0.00 80 1014.7
20260905202419 84 291 0.0 0.0 0.00 0.00 0.00 78 1014.7
20260905201914 85 104 0.0 0.0 0.00 0.00 0.00 76 1014.9
20260905201409 86 326 0.0 2.0 0.00 0.00 0.00 68 1015.0
20260905200909 88 295 1.0 2.0 0.00 0.00 0.00 66 1015.0
20260905200405 88 261 2.0 3.0 0.00 0.00 0.00 69 1014.9
20260905195903 89 89 0.0 1.0 0.00 0.00 0.00 65 1014.9
20260905195358 89 259 3.0 4.0 0.00 0.00 0.00 59 1014.7
20260905194855 89 142 0.0 3.0 0.00 0.00 0.00 63 1014.5
20260905194354 87 255 3.0 5.0 0.00 0.00 0.00 64 1014.8
20260905193853 86 235 1.0 1.0 0.00 0.00 0.00 72 1014.8
20260905193348 86 209 0.0 2.0 0.00 0.00 0.00 75 1014.8
20260905192844 87 296 1.0 2.0 0.00 0.00 0.00 67 1014.9
20260905192339 89 322 0.0 4.0 0.00 0.00 0.00 69 1015.2
20260905191839 88 259 3.0 3.0 0.00 0.00 0.00 64 1015.3
20260905191338 88 262 2.0 4.0 0.00 0.00 0.00 63 1015.3
20260905190837 88 286 3.0 4.0 0.00 0.00 0.00 66 1015.3
20260905190330 88 304 1.0 3.0 0.00 0.00 0.00 71 1015.4
20260905185829 87 306 0.0 4.0 0.00 0.00 0.00 68 1015.2
20260905185325 86 276 0.0 3.0 0.00 0.00 0.00 70 1015.4
20260905184823 85 191 0.0 1.0 0.00 0.00 0.00 76 1015.3
20260905184324 86 282 2.0 2.0 0.00 0.00 0.00 72 1015.1
20260905183822 88 283 2.0 2.0 0.00 0.00 0.00 71 1015.5
20260905183318 89 324 1.0 2.0 0.00 0.00 0.00 74 1015.4
20260905182818 88 273 2.0 5.0 0.00 0.00 0.00 62 1015.5
20260905182317 88 72 2.0 4.0 0.00 0.00 0.00 69 1015.4
20260905181813 88 291 4.0 5.0 0.00 0.00 0.00 64 1015.6
20260905181312 87 296 2.0 4.0 0.00 0.00 0.00 66 1015.6
20260905180811 87 309 2.0 3.0 0.00 0.00 0.00 68 1015.6
20260905180306 86 291 0.0 3.0 0.00 0.00 0.00 74 1015.8
20260905175801 87 299 0.0 2.0 0.00 0.00 0.00 72 1015.8
20260905175256 87 104 0.0 2.0 0.00 0.00 0.00 74 1016.2
20260905174751 87 296 2.0 2.0 0.00 0.00 0.00 71 1015.9
20260905174247 87 42 1.0 2.0 0.00 0.00 0.00 73 1016.0
20260905173744 87 262 2.0 4.0 0.00 0.00 0.00 64 1016.0
20260905173239 87 244 5.0 6.0 0.00 0.00 0.00 66 1016.3
20260905172738 87 54 1.0 2.0 0.00 0.00 0.00 74 1016.2
20260905172232 88 63 0.0 3.0 0.00 0.00 0.00 72 1016.4
20260905171729 88 241 3.0 4.0 0.00 0.00 0.00 62 1016.3
20260905171225 87 295 1.0 3.0 0.00 0.00 0.00 66 1016.4
20260905170721 87 353 0.0 2.0 0.00 0.00 0.00 75 1016.4
20260905170221 88 293 1.0 4.0 0.00 0.00 0.00 72 1016.3
20260905165721 88 217 1.0 2.0 0.00 0.00 0.00 70 1016.4
20260905165216 89 282 3.0 6.0 0.00 0.00 0.00 64 1016.5
20260905164711 88 275 2.0 2.0 0.00 0.00 0.00 68 1016.6
20260905164210 88 25 0.0 2.0 0.00 0.00 0.00 71 1016.7
20260905163706 87 285 2.0 3.0 0.00 0.00 0.00 71 1016.7
20260905163202 87 306 8.0 8.0 0.00 0.00 0.00 65 1016.8
20260905162658 87 304 2.0 2.0 0.00 0.00 0.00 74 1016.7
20260905162158 87 263 2.0 3.0 0.00 0.00 0.00 73 1016.9
20260905161654 87 284 0.0 2.0 0.00 0.00 0.00 71 1017.1
20260905161151 87 48 1.0 2.0 0.00 0.00 0.00 75 1017.0
20260905160651 86 189 1.0 2.0 0.00 0.00 0.00 72 1017.3
20260905160150 85 255 3.0 3.0 0.00 0.00 0.00 73 1017.1
20260905155650 85 280 2.0 2.0 0.00 0.00 0.00 76 1017.2
20260905155149 85 159 1.0 2.0 0.00 0.00 0.00 76 1017.2
20260905154643 85 121 1.0 3.0 0.00 0.00 0.00 77 1017.3
20260905154139 85 310 2.0 4.0 0.00 0.00 0.00 77 1017.3
20260905153634 84 308 2.0 2.0 0.00 0.00 0.00 84 1017.3
20260905153130 84 38 0.0 2.0 0.00 0.00 0.00 80 1017.4
20260905152625 83 255 0.0 2.0 0.00 0.00 0.00 82 1017.3
20260905152119 82 37 2.0 2.0 0.00 0.00 0.00 83 1017.2
20260905151614 82 127 2.0 2.0 0.00 0.00 0.00 83 1017.4
20260905151110 82 58 0.0 2.0 0.00 0.00 0.00 85 1017.5
20260905150605 81 217 0.0 2.0 0.00 0.00 0.00 81 1017.4
20260905145557 80 50 0.0 2.0 0.00 0.00 0.00 88 1017.5
20260905145056 80 82 0.0 2.0 0.00 0.00 0.00 86 1017.4
20260905144551 79 50 2.0 2.0 0.00 0.00 0.00 88 1017.6
20260905144049 78 37 0.0 2.0 0.00 0.00 0.00 89 1017.5
20260905143549 78 79 1.0 2.0 0.00 0.00 0.00 88 1017.7
20260905143044 78 66 0.0 2.0 0.00 0.00 0.00 89 1017.5
20260905142543 77 35 0.0 2.0 0.00 0.00 0.00 91 1017.4
20260905142033 77 44 1.0 2.0 0.00 0.00 0.00 92 1017.6
20260905141532 76 85 1.0 1.0 0.00 0.00 0.00 91 1017.6
20260905141030 75 82 1.0 2.0 0.00 0.00 0.00 93 1017.6
20260905140529 75 65 0.0 1.0 0.00 0.00 0.00 93 1017.7
20260905140028 74 50 0.0 2.0 0.00 0.00 0.00 94 1017.9
20260905135524 73 62 0.0 1.0 0.00 0.00 0.00 94 1017.6
20260905135019 73 89 0.0 1.0 0.00 0.00 0.00 96 1018.0
20260905134514 72 58 1.0 2.0 0.00 0.00 0.00 97 1017.6
20260905134012 71 68 0.0 2.0 0.00 0.00 0.00 99 1018.1
20260905133508 71 32 0.0 0.0 0.00 0.00 0.00 99 1018.0
20260905133008 70 53 0.0 1.0 0.00 0.00 0.00 99 1017.7
20260905132502 70 341 0.0 0.0 0.00 0.00 0.00 99 1018.0
20260905132002 70 344 0.0 0.0 0.00 0.00 0.00 99 1018.1
20260905131458 69 5 0.0 0.0 0.00 0.00 0.00 99 1018.1
20260905130953 69 0 0.0 0.0 0.00 0.00 0.00 99 1018.2
20260905130452 69 347 0.0 1.0 0.00 0.00 0.00 99 1018.2
20260905125952 68 345 0.0 0.0 0.00 0.00 0.00 99 1018.1
20260905125447 68 0 0.0 0.0 0.00 0.00 0.00 99 1018.1
20260905124942 68 343 0.0 1.0 0.00 0.00 0.00 99 1018.0
20260905124440 68 324 0.0 1.0 0.00 0.00 0.00 99 1017.9
20260905123940 68 308 1.0 2.0 0.00 0.00 0.00 99 1017.9
20260905123437 68 309 0.0 0.0 0.00 0.00 0.00 99 1018.1
20260905122937 67 309 0.0 2.0 0.00 0.00 0.00 99 1017.9
20260905122436 67 310 2.0 2.0 0.02 0.00 0.00 99 1017.9
20260905121932 67 313 0.0 1.0 0.02 0.00 0.00 99 1018.0
20260905121428 67 312 1.0 2.0 0.00 0.00 0.00 99 1017.7
20260905120926 66 305 2.0 2.0 0.00 0.00 0.00 99 1017.9
20260905120421 66 296 1.0 2.0 0.00 0.00 0.00 99 1017.9
20260905115916 66 307 1.0 1.0 0.00 0.00 0.00 99 1017.5
20260905115415 66 316 0.0 1.0 0.00 0.00 0.00 99 1017.9
20260905114911 66 312 1.0 2.0 0.00 0.00 0.00 99 1017.5
20260905114410 66 298 2.0 2.0 0.00 0.00 0.00 99 1017.7
20260905113909 66 315 1.0 2.0 0.00 0.00 0.00 99 1017.6
20260905113405 66 309 2.0 2.0 0.00 0.00 0.00 99 1017.4
20260905112900 66 302 1.0 1.0 0.00 0.00 0.00 99 1017.4
20260905112355 66 335 1.0 2.0 0.00 0.00 0.00 99 1017.4
20260905111851 66 303 2.0 2.0 0.00 0.00 0.00 99 1017.1
20260905111350 66 292 1.0 2.0 0.00 0.00 0.00 99 1017.1
20260905110849 66 312 2.0 2.0 0.00 0.00 0.00 99 1017.2
20260905110344 66 312 1.0 1.0 0.00 0.00 0.00 99 1016.9
20260905105840 66 314 2.0 2.0 0.00 0.00 0.00 99 1017.0
20260905105339 66 299 0.0 2.0 0.00 0.00 0.00 99 1017.1
20260905104838 66 283 2.0 2.0 0.00 0.00 0.00 99 1016.7
20260905104335 66 309 0.0 0.0 0.00 0.00 0.00 99 1017.0
20260905103834 66 310 1.0 2.0 0.00 0.00 0.00 99 1016.8
20260905103330 66 305 1.0 1.0 0.00 0.00 0.00 99 1016.8